Natchitoches, LA

10:08 AM CDT on April 23, 2017 (GMT -0500)
Natchitoches Regional

Weather History for KIER - June, 2013

Change the Weather History Date:

Sunday, June 30, 2013

  Actual Average Record
Temperature  
Mean Temperature 77 °F -  
Max Temperature 90 °F 92 °F 103 °F (1954)
Min Temperature 64 °F 72 °F 62 °F (1958)
Cooling Degree Days 12    
Growing Degree Days 27 (Base 50)    
Moisture  
Dew Point 62 °F    
Average Humidity 59    
Maximum Humidity 90    
Minimum Humidity 34    
Precipitation  
Precipitation 0.00 in - - ()
Sea Level Pressure  
Sea Level Pressure 29.81 in    
Wind  
Wind Speed 6 mph (NNW)    
Max Wind Speed 15 mph    
Max Gust Speed 24 mph    
Visibility 10 miles    
Events      
Averages and records for this station are not official NWS values.
T = Trace of Precipitation, MM = Missing Value Source: NWS Daily Summary

Daily Weather History Graph

Daily Weather History Graph

Search for Another Location

Airport or City:

Trip Planner

Search our weather history database for the weather conditions in past years. The results will help you decide how hot, cold, wet, or windy it might be!

Date:

Astronomy

Jun. 30, 2013 Rise Set
Actual Time 6:10 AM CDT 8:21 PM CDT
Civil Twilight 5:42 AM CDT 8:49 PM CDT
Nautical Twilight 5:07 AM CDT 9:24 PM CDT
Astronomical Twilight 4:31 AM CDT 10:01 PM CDT
Moon 12:51 AM CDT (6/30) 1:52 PM CDT (6/30)
Length of Visible Light 15h 07m
Length of Day
14h 11m
Last Quarter, 45% of the Moon is Illuminated
Jun 30
Last Quarter
Jul 8
New
Jul 15
First Quarter
Jul 22
Full
Jul 29
Last Quarter

Hourly Weather History & Observations

Time (CDT) Temp. Heat Index Dew Point Humidity Pressure Visibility Wind Dir Wind Speed Gust Speed Precip Events Conditions
12:15 AM 72.1 °F - 67.1 °F 84% 29.80 in 10.0 mi Calm Calm - N/A   Clear
12:35 AM 72.9 °F - 66.7 °F 81% 29.80 in 10.0 mi WNW 4.6 mph - N/A   Clear
12:55 AM 73.0 °F - 65.7 °F 78% 29.80 in 10.0 mi WNW 4.6 mph - N/A   Clear
1:15 AM 73.4 °F - 64.9 °F 75% 29.80 in 10.0 mi WNW 5.8 mph - N/A   Clear
1:35 AM 71.6 °F - 65.3 °F 80% 29.79 in 10.0 mi WNW 4.6 mph - N/A   Clear
1:55 AM 71.1 °F - 64.9 °F 81% 29.79 in 10.0 mi West 4.6 mph - N/A   Clear
2:35 AM 70.0 °F - 65.1 °F 85% 29.78 in 10.0 mi WNW 3.5 mph - N/A   Clear
2:55 AM 70.2 °F - 64.4 °F 82% 29.78 in 10.0 mi NW 3.5 mph - N/A   Clear
3:15 AM 69.8 °F - 64.4 °F 83% 29.78 in 10.0 mi NW 4.6 mph - N/A   Clear
3:35 AM 70.7 °F - 63.3 °F 77% 29.78 in 10.0 mi NW 3.5 mph - N/A   Clear
3:55 AM 69.8 °F - 63.0 °F 79% 29.78 in 10.0 mi NW 4.6 mph - N/A   Clear
4:15 AM 67.8 °F - 63.0 °F 84% 29.77 in 10.0 mi NW 3.5 mph - N/A   Clear
4:35 AM 67.3 °F - 62.2 °F 84% 29.78 in 10.0 mi NW 4.6 mph - N/A   Clear
5:15 AM 68.4 °F - 61.0 °F 77% 29.78 in 10.0 mi NW 4.6 mph - N/A   Clear
5:35 AM 66.4 °F - 61.7 °F 85% 29.78 in 10.0 mi Calm Calm - N/A   Clear
5:55 AM 64.4 °F - 61.3 °F 90% 29.79 in 10.0 mi Calm Calm - N/A   Clear
6:15 AM 64.4 °F - 61.5 °F 90% 29.79 in 10.0 mi Calm Calm - N/A   Clear
6:35 AM 64.6 °F - 61.7 °F 90% 29.80 in 10.0 mi Calm Calm - N/A   Clear
6:55 AM 66.2 °F - 62.6 °F 88% 29.80 in 10.0 mi Calm Calm - N/A   Clear
7:15 AM 69.1 °F - 64.2 °F 84% 29.81 in 10.0 mi Calm Calm - N/A   Clear
7:55 AM 74.3 °F - 64.0 °F 70% 29.82 in 10.0 mi WNW 4.6 mph - N/A   Clear
8:15 AM 76.1 °F - 63.0 °F 64% 29.82 in 10.0 mi NW 6.9 mph - N/A   Clear
8:35 AM 77.4 °F - 63.3 °F 62% 29.82 in 10.0 mi North 6.9 mph - N/A   Clear
8:55 AM 78.8 °F - 63.5 °F 59% 29.82 in 10.0 mi NW 6.9 mph - N/A   Clear
9:15 AM 79.5 °F - 63.5 °F 58% 29.83 in 10.0 mi North 5.8 mph - N/A   Clear
9:35 AM 79.9 °F - 63.1 °F 56% 29.83 in 10.0 mi North 6.9 mph - N/A   Mostly Cloudy
9:55 AM 81.7 °F 83.0 °F 63.3 °F 54% 29.83 in 10.0 mi NNW 8.1 mph - N/A   Mostly Cloudy
10:15 AM 82.9 °F 83.8 °F 62.8 °F 50% 29.83 in 10.0 mi North 9.2 mph - N/A   Scattered Clouds
10:35 AM 83.1 °F 84.2 °F 63.3 °F 51% 29.83 in 10.0 mi NW 6.9 mph - N/A   Clear
10:55 AM 83.8 °F 85.1 °F 63.7 °F 51% 29.83 in 10.0 mi NW 8.1 mph - N/A   Clear
11:15 AM 84.7 °F 85.9 °F 63.7 °F 49% 29.84 in 10.0 mi NW 6.9 mph - N/A   Clear
11:35 AM 85.1 °F 86.4 °F 63.7 °F 49% 29.84 in 10.0 mi NNW 8.1 mph - N/A   Clear
11:55 AM 85.5 °F 86.1 °F 62.2 °F 46% 29.84 in 10.0 mi NW 11.5 mph 16.1 mph N/A   Clear
12:15 PM 86.9 °F 87.2 °F 62.2 °F 43% 29.84 in 10.0 mi North 9.2 mph - N/A   Clear
12:35 PM 87.3 °F 87.7 °F 62.4 °F 43% 29.83 in 10.0 mi NW 11.5 mph - N/A   Clear
12:55 PM 87.3 °F 87.0 °F 60.1 °F 40% 29.83 in 10.0 mi NNW 10.4 mph 16.1 mph N/A   Clear
1:15 PM 88.3 °F 88.4 °F 61.5 °F 40% 29.83 in 10.0 mi NNW 10.4 mph 16.1 mph N/A   Clear
1:35 PM 88.5 °F 88.3 °F 60.6 °F 39% 29.82 in 10.0 mi North 11.5 mph - N/A   Clear
1:55 PM 88.0 °F 87.1 °F 59.0 °F 37% 29.81 in 10.0 mi WNW 10.4 mph 20.7 mph N/A   Scattered Clouds
2:15 PM 88.3 °F 88.1 °F 60.6 °F 39% 29.81 in 10.0 mi NNW 10.4 mph 17.3 mph N/A   Clear
2:35 PM 89.6 °F 89.8 °F 61.3 °F 39% 29.81 in 10.0 mi WNW 12.7 mph 17.3 mph N/A   Clear
2:55 PM 89.6 °F 88.9 °F 59.5 °F 36% 29.81 in 10.0 mi NNW 12.7 mph 18.4 mph N/A   Clear
3:15 PM 89.4 °F 88.7 °F 58.8 °F 36% 29.81 in 10.0 mi NNW 13.8 mph 24.2 mph N/A   Clear
3:35 PM 89.6 °F 88.9 °F 59.7 °F 36% 29.81 in 10.0 mi North 11.5 mph 23.0 mph N/A   Clear
3:55 PM 89.8 °F 89.1 °F 59.4 °F 36% 29.81 in 10.0 mi NNW 12.7 mph 16.1 mph N/A   Clear
4:15 PM 90.1 °F 89.9 °F 60.6 °F 37% 29.80 in 10.0 mi NNW 10.4 mph - N/A   Clear
4:35 PM 89.2 °F 88.7 °F 59.7 °F 37% 29.80 in 10.0 mi NW 11.5 mph - N/A   Scattered Clouds
4:55 PM 89.8 °F 89.1 °F 59.5 °F 36% 29.80 in 10.0 mi NNW 11.5 mph - N/A   Clear
5:15 PM 89.6 °F 88.9 °F 59.7 °F 36% 29.80 in 10.0 mi NNW 12.7 mph 18.4 mph N/A   Scattered Clouds
5:35 PM 88.7 °F 87.5 °F 57.7 °F 35% 29.80 in 10.0 mi NNW 9.2 mph - N/A   Scattered Clouds
5:55 PM 88.3 °F 86.9 °F 57.0 °F 34% 29.80 in 10.0 mi NNW 15.0 mph 18.4 mph N/A   Clear
6:15 PM 87.8 °F 86.7 °F 57.7 °F 36% 29.80 in 10.0 mi North 11.5 mph - N/A   Clear
6:35 PM 86.9 °F 86.5 °F 59.5 °F 40% 29.80 in 10.0 mi North 12.7 mph 16.1 mph N/A   Clear
6:55 PM 85.6 °F 85.4 °F 59.9 °F 42% 29.80 in 10.0 mi North 12.7 mph - N/A   Clear
7:15 PM 84.6 °F 84.8 °F 61.2 °F 45% 29.81 in 10.0 mi North 10.4 mph - N/A   Clear
7:35 PM 83.3 °F 83.7 °F 61.2 °F 47% 29.81 in 10.0 mi North 9.2 mph - N/A   Clear
7:55 PM 82.0 °F 82.7 °F 61.0 °F 49% 29.82 in 10.0 mi North 8.1 mph - N/A   Clear
8:15 PM 79.7 °F - 61.2 °F 53% 29.82 in 10.0 mi North 8.1 mph - N/A   Clear
8:35 PM 78.8 °F - 61.0 °F 54% 29.82 in 10.0 mi North 8.1 mph - N/A   Clear
8:55 PM 78.1 °F - 61.0 °F 56% 29.83 in 10.0 mi North 6.9 mph - N/A   Clear
9:15 PM 77.9 °F - 61.2 °F 56% 29.83 in 10.0 mi North 6.9 mph - N/A   Clear
9:35 PM 77.0 °F - 61.3 °F 58% 29.84 in 10.0 mi North 6.9 mph - N/A   Clear
9:55 PM 77.2 °F - 61.7 °F 59% 29.85 in 10.0 mi NNE 6.9 mph - N/A   Clear
10:15 PM 76.3 °F - 62.1 °F 61% 29.85 in 10.0 mi NE 5.8 mph - N/A   Clear
10:35 PM 75.0 °F - 62.4 °F 65% 29.86 in 10.0 mi NNE 5.8 mph - N/A   Clear
10:55 PM 75.4 °F - 62.1 °F 63% 29.86 in 10.0 mi NNE 5.8 mph - N/A   Clear
11:15 PM 75.2 °F - 62.4 °F 64% 29.86 in 10.0 mi North 5.8 mph - N/A   Clear
11:35 PM 73.8 °F - 62.8 °F 68% 29.86 in 10.0 mi North 5.8 mph - N/A   Clear
11:55 PM 73.2 °F - 63.0 °F 70% 29.86 in 10.0 mi NNE 4.6 mph - N/A   Clear